Terminal Aerodrome Forecast
Issued by NWS Twin Cities, MN

Home | Current Version | Previous Version | Graphics & Text | Print | Product List | Glossary On
Versions: 1 2 3 4 5 6 7 8 9 10 11 12 13 14 15 16 17 18 19 20 21 22 23 24 25 26
000
FTUS43 KMPX 160800 AAA
TAFMSP
TAF AMD
KMSP 160854Z 1609/1712 20003KT P6SM SKC
     FM161500 23005KT P6SM SKC
     FM161700 24008KT P6SM FEW050
     FM170100 18003KT P6SM SKC=

USA.gov is the U.S. government's official web portal to all federal, state and local government web resources and services.